FW7556 Weather Reports


time (UTC)temp
C
wind
direction
speed
KPH
gust
KPH
rain 1hr
cm
rain 24hr
cm
rain mn
cm
humidity
%
barometer
mb
20260503050146 4 66 0.0 1.6 0.00 0.00 0.00 74 1016.3
20260503045643 4 66 0.0 1.6 0.00 0.00 0.00 74 1016.1
20260503045140 4 75 0.0 1.6 0.00 0.00 0.00 74 1016.1
20260503044637 4 74 0.0 0.0 0.00 0.00 0.00 74 1016.1
20260503044135 4 74 0.0 0.0 0.00 0.00 0.00 74 1016.2
20260503043631 4 74 0.0 0.0 0.00 0.00 0.00 74 1016.0
20260503043128 4 74 0.0 0.0 0.00 0.00 0.00 73 1016.2
20260503042625 5 74 0.0 0.0 0.00 0.00 0.00 73 1015.7
20260503042120 5 74 0.0 0.0 0.00 0.00 0.00 73 1016.1
20260503041617 5 66 0.0 0.0 0.00 0.00 0.00 73 1015.9
20260503041115 5 66 0.0 0.0 0.00 0.00 0.00 73 1015.9
20260503040612 5 66 0.0 0.0 0.00 0.00 0.00 73 1015.8
20260503040110 5 66 0.0 0.0 0.00 0.00 0.00 72 1015.9
20260503035606 5 66 0.0 0.0 0.00 0.00 0.00 72 1015.7
20260503035104 5 66 0.0 0.0 0.00 0.00 0.00 72 1015.7
20260503034601 5 66 0.0 0.0 0.00 0.00 0.00 72 1015.6
20260503034058 5 66 0.0 0.0 0.00 0.00 0.00 72 1015.6
20260503033555 5 66 0.0 0.0 0.00 0.00 0.00 72 1015.5
20260503033053 5 66 0.0 0.0 0.00 0.00 0.00 72 1015.6
20260503032551 6 74 0.0 0.0 0.00 0.00 0.00 71 1015.5
20260503032049 6 82 0.0 0.0 0.00 0.00 0.00 71 1015.6
20260503031546 6 82 0.0 0.0 0.00 0.00 0.00 71 1015.3
20260503031043 6 82 0.0 0.0 0.00 0.00 0.00 71 1015.6
20260503030539 6 82 0.0 0.0 0.00 0.00 0.00 71 1015.5
20260503030037 6 82 0.0 0.0 0.00 0.00 0.00 71 1015.4
20260503025533 6 82 0.0 0.0 0.00 0.00 0.00 71 1015.4
20260503025031 6 82 0.0 0.0 0.00 0.00 0.00 70 1015.4
20260503024527 6 82 0.0 0.0 0.00 0.00 0.00 70 1015.2
20260503024025 6 82 0.0 0.0 0.00 0.00 0.00 70 1015.3
20260503023521 7 140 0.0 1.6 0.00 0.00 0.00 70 1015.4
20260503023019 7 29 0.0 0.0 0.00 0.00 0.00 70 1015.2
20260503022514 7 29 0.0 0.0 0.00 0.00 0.00 70 1015.3
20260503022009 7 23 0.0 0.0 0.00 0.00 0.00 69 1015.3
20260503021506 7 23 0.0 0.0 0.00 0.00 0.00 69 1015.2
20260503021003 7 23 0.0 0.0 0.00 0.00 0.00 68 1015.1
20260503020501 7 23 0.0 0.0 0.00 0.00 0.00 68 1015.0
20260503015957 7 23 0.0 0.0 0.00 0.00 0.00 68 1014.7
20260503015454 7 40 0.0 0.0 0.00 0.00 0.00 67 1015.0
20260503014950 7 40 0.0 0.0 0.00 0.00 0.00 67 1015.0
20260503014447 8 40 0.0 0.0 0.00 0.00 0.00 67 1014.8
20260503013945 8 40 0.0 0.0 0.00 0.00 0.00 67 1014.8
20260503013442 8 40 0.0 0.0 0.00 0.00 0.00 66 1014.4
20260503012939 8 40 0.0 0.0 0.00 0.00 0.00 66 1014.5
20260503012437 8 195 0.0 0.0 0.00 0.00 0.00 65 1014.5
20260503011933 8 195 0.0 0.0 0.00 0.00 0.00 65 1014.4
20260503011430 8 195 0.0 0.0 0.00 0.00 0.00 65 1014.1
20260503010927 9 7 0.0 1.6 0.00 0.00 0.00 64 1013.9
20260503010424 10 8 0.0 0.0 0.00 0.00 0.00 64 1013.8
20260503005921 10 66 0.0 0.0 0.00 0.00 0.00 63 1013.8
20260503005418 10 66 0.0 0.0 0.00 0.00 0.00 63 1013.7
20260503004915 10 165 0.0 0.0 0.00 0.00 0.00 63 1013.4
20260503004412 10 165 0.0 0.0 0.00 0.00 0.00 63 1013.7
20260503003909 10 165 0.0 0.0 0.00 0.00 0.00 62 1013.4
20260503003406 10 165 0.0 0.0 0.00 0.00 0.00 62 1013.6
20260503002903 11 165 0.0 1.6 0.00 0.00 0.00 62 1013.4
20260503002400 11 0 0.0 1.6 0.00 0.00 0.00 61 1013.6
20260503001856 11 180 0.0 0.0 0.00 0.00 0.00 61 1013.5
20260503001353 11 180 0.0 0.0 0.00 0.00 0.00 61 1013.4
20260503000851 11 195 0.0 0.0 0.00 0.00 0.00 60 1013.3
20260503000348 11 195 0.0 0.0 0.00 0.00 0.00 60 1013.2
20260502235844 11 195 0.0 0.0 0.00 0.00 0.00 59 1013.2
20260502235342 11 195 0.0 0.0 0.00 0.00 0.00 59 1013.0
20260502234838 11 195 0.0 0.0 0.00 0.00 0.00 58 1013.2
20260502234335 11 195 0.0 0.0 0.00 0.00 0.00 57 1012.9
20260502233832 12 195 0.0 0.0 0.00 0.00 0.00 57 1012.9
20260502233328 12 195 0.0 0.0 0.00 0.00 0.00 57 1012.8
20260502232825 12 195 0.0 0.0 0.00 0.00 0.00 56 1012.8
20260502232321 12 195 0.0 0.0 0.00 0.00 0.00 55 1012.5
20260502231818 12 195 0.0 0.0 0.00 0.00 0.00 55 1012.5
20260502231316 12 195 0.0 0.0 0.00 0.00 0.00 54 1012.6
20260502230814 12 195 0.0 0.0 0.00 0.00 0.00 54 1012.3
20260502230312 12 195 0.0 0.0 0.00 0.00 0.00 53 1012.6
20260502225808 12 195 0.0 0.0 0.00 0.00 0.00 52 1012.5
20260502225305 13 195 0.0 0.0 0.00 0.00 0.00 52 1012.6
20260502224802 13 180 0.0 0.0 0.00 0.00 0.00 51 1012.4
20260502224258 13 206 0.0 0.0 0.00 0.00 0.00 50 1012.4
20260502223756 13 199 0.0 0.0 0.00 0.00 0.00 50 1012.2
20260502223254 13 279 0.0 4.8 0.00 0.00 0.00 50 1012.3
20260502222751 13 101 4.8 4.8 0.00 0.00 0.00 50 1012.1
20260502222248 13 270 0.0 3.2 0.00 0.00 0.00 49 1011.9
20260502221743 13 187 1.6 1.6 0.00 0.00 0.00 50 1012.0
20260502221240 13 54 1.6 3.2 0.00 0.00 0.00 49 1012.0
20260502220736 13 246 0.0 1.6 0.00 0.00 0.00 48 1011.9
20260502220227 13 71 0.0 3.2 0.00 0.00 0.00 49 1011.9
20260502215724 13 90 0.0 0.0 0.00 0.00 0.00 48 1012.1
20260502215221 14 30 3.2 6.4 0.00 0.00 0.00 49 1011.8
20260502214718 13 240 1.6 4.8 0.00 0.00 0.00 49 1011.7
20260502214215 13 246 6.4 6.4 0.00 0.00 0.00 49 1011.8
20260502213713 13 221 3.2 6.4 0.00 0.00 0.00 49 1011.8
20260502213210 13 0 1.6 1.6 0.00 0.00 0.00 48 1011.8
20260502212708 13 270 0.0 3.2 0.00 0.00 0.00 48 1011.8
20260502212206 13 213 3.2 3.2 0.00 0.00 0.00 49 1011.8
20260502211702 13 180 0.0 6.4 0.00 0.00 0.00 49 1012.0
20260502211159 13 217 3.2 6.4 0.00 0.00 0.00 48 1011.7
20260502210656 13 195 0.0 4.8 0.00 0.00 0.00 49 1011.7
20260502210153 13 327 3.2 4.8 0.00 0.00 0.00 49 1011.9
20260502205650 13 285 0.0 3.2 0.00 0.00 0.00 48 1012.1
20260502205147 13 203 0.0 0.0 0.00 0.00 0.00 50 1012.0
20260502204644 13 180 0.0 4.8 0.00 0.00 0.00 49 1011.8
20260502204141 13 6 0.0 3.2 0.00 0.00 0.00 50 1012.0
20260502203638 13 201 4.8 6.4 0.00 0.00 0.00 49 1011.9
20260502203137 13 270 0.0 0.0 0.00 0.00 0.00 51 1011.9
20260502202631 13 261 0.0 3.2 0.00 0.00 0.00 50 1012.0
20260502202129 13 339 0.0 4.8 0.00 0.00 0.00 50 1012.2
20260502201625 13 353 1.6 3.2 0.00 0.00 0.00 50 1012.2
20260502201122 13 291 0.0 3.2 0.00 0.00 0.00 51 1012.6
20260502200618 13 111 0.0 3.2 0.00 0.00 0.00 50 1012.5
20260502200115 13 334 4.8 6.4 0.00 0.00 0.00 51 1012.5
20260502195614 13 0 0.0 1.6 0.00 0.00 0.00 51 1012.6
20260502195109 13 29 1.6 3.2 0.00 0.00 0.00 51 1012.8
20260502194606 13 337 0.0 1.6 0.00 0.00 0.00 51 1012.7
20260502194102 13 0 0.0 0.0 0.00 0.00 0.00 52 1012.8
20260502193600 12 77 0.0 3.2 0.00 0.00 0.00 52 1012.7
20260502193056 12 270 0.0 4.8 0.00 0.00 0.00 51 1012.8
20260502192552 12 20 1.6 3.2 0.00 0.00 0.00 52 1012.7
20260502192049 12 355 1.6 3.2 0.00 0.00 0.00 52 1012.7
20260502191546 12 328 0.0 3.2 0.00 0.00 0.00 51 1013.0
20260502191044 12 120 0.0 1.6 0.00 0.00 0.00 52 1013.0
20260502190541 12 282 0.0 4.8 0.00 0.00 0.00 52 1013.3
20260502190038 12 278 0.0 3.2 0.00 0.00 0.00 52 1013.3
20260502185533 12 278 0.0 3.2 0.00 0.00 0.00 52 1013.5
20260502185030 12 90 1.6 3.2 0.00 0.00 0.00 53 1013.3
20260502184526 12 270 1.6 4.8 0.00 0.00 0.00 53 1013.1
20260502184022 12 12 0.0 3.2 0.00 0.00 0.00 53 1013.5
20260502183518 12 270 1.6 6.4 0.00 0.00 0.00 53 1013.4
20260502183015 12 328 0.0 3.2 0.00 0.00 0.00 53 1013.4
20260502182509 12 117 0.0 4.8 0.00 0.00 0.00 53 1013.4
20260502182006 12 0 0.0 6.4 0.00 0.00 0.00 53 1013.0
20260502181504 12 117 0.0 1.6 0.00 0.00 0.00 54 1013.1
20260502181003 12 345 1.6 1.6 0.00 0.00 0.00 54 1013.2
20260502180459 12 140 0.0 3.2 0.00 0.00 0.00 53 1013.3
20260502170418 11 8 0.0 3.2 0.00 0.00 0.00 55 1013.5
20260502163901 11 286 0.0 4.8 0.00 0.00 0.00 57 1014.4
20260502163358 11 0 0.0 3.2 0.00 0.00 0.00 57 1014.5
20260502162856 11 356 3.2 3.2 0.00 0.00 0.00 57 1014.5
20260502162352 11 299 8.0 8.0 0.00 0.00 0.00 57 1014.8
20260502161849 11 261 0.0 4.8 0.00 0.00 0.00 57 1014.7
20260502161345 11 346 3.2 4.8 0.00 0.00 0.00 58 1014.9
20260502160843 11 328 4.8 8.0 0.00 0.00 0.00 58 1014.9
20260502160341 11 7 1.6 4.8 0.00 0.00 0.00 57 1015.1
20260502152316 11 220 3.2 3.2 0.00 0.00 0.00 60 1014.8
20260502151814 11 12 0.0 3.2 0.00 0.00 0.00 59 1014.8
20260502151310 11 255 1.6 3.2 0.00 0.00 0.00 59 1014.8
20260502150808 11 48 0.0 6.4 0.00 0.00 0.00 59 1014.7
20260502150304 11 254 0.0 6.4 0.00 0.00 0.00 59 1014.7
20260502130653 11 210 3.2 4.8 0.00 0.00 0.00 71 1014.3
20260502130151 11 0 1.6 3.2 0.00 0.00 0.00 72 1014.5
20260502123636 11 0 4.8 8.0 0.00 0.00 0.00 74 1013.6
20260502123133 11 117 3.2 4.8 0.00 0.00 0.00 75 1013.8
20260502122629 11 132 0.0 6.4 0.00 0.00 0.00 75 1013.8
20260502122126 11 270 0.0 4.8 0.00 0.00 0.00 76 1013.8
20260502121624 11 348 3.2 4.8 0.00 0.00 0.00 76 1013.9
20260502121121 11 0 0.0 1.6 0.00 0.00 0.00 76 1013.8
20260502120618 11 0 1.6 4.8 0.00 0.00 0.00 76 1013.6
20260502120115 11 319 3.2 4.8 0.00 0.00 0.00 76 1013.8
20260502115613 11 59 3.2 4.8 0.00 0.00 0.00 76 1013.8
20260502115108 11 328 1.6 6.4 0.00 0.00 0.00 77 1013.7
20260502114604 11 157 0.0 3.2 0.00 0.00 0.00 77 1013.7
20260502114102 11 29 3.2 4.8 0.00 0.00 0.00 77 1013.8
20260502113559 11 81 0.0 1.6 0.00 0.00 0.00 78 1013.8
20260502113058 11 90 0.0 3.2 0.00 0.00 0.00 78 1013.6
20260502112555 11 209 3.2 3.2 0.00 0.00 0.00 78 1013.6
20260502112052 11 261 0.0 3.2 0.00 0.00 0.00 78 1013.5
20260502111550 11 132 0.0 4.8 0.00 0.00 0.00 79 1013.4
20260502111047 11 345 0.0 3.2 0.00 0.00 0.00 79 1013.6
20260502110544 11 29 0.0 4.8 0.00 0.00 0.00 80 1013.5
20260502110042 11 172 0.0 3.2 0.00 0.00 0.00 80 1013.7
20260502105539 11 90 0.0 4.8 0.00 0.00 0.00 80 1013.5
20260502105037 10 0 0.0 0.0 0.00 0.00 0.00 80 1013.6
20260502104533 10 81 0.0 0.0 0.00 0.00 0.00 80 1013.5
20260502104031 10 81 0.0 3.2 0.00 0.00 0.00 80 1013.4
20260502103529 10 26 0.0 3.2 0.00 0.00 0.00 80 1013.4
20260502103027 10 355 0.0 0.0 0.00 0.00 0.00 80 1013.6
20260502102522 10 8 0.0 0.0 0.00 0.00 0.00 80 1013.7
20260502102020 10 8 0.0 0.0 0.00 0.00 0.00 80 1013.7
20260502101518 10 8 0.0 0.0 0.00 0.00 0.00 80 1013.8
20260502101016 10 8 0.0 0.0 0.00 0.00 0.00 80 1013.8
20260502100514 10 81 0.0 1.6 0.00 0.00 0.00 80 1013.8
20260502091448 10 0 0.0 0.0 0.00 0.00 0.00 80 1013.6
20260502090946 10 8 0.0 0.0 0.00 0.00 0.00 80 1013.5
20260502090442 10 8 0.0 0.0 0.00 0.00 0.00 80 1013.7
20260502071337 11 15 0.0 0.0 0.00 0.00 0.00 77 1012.7
20260502070835 11 15 0.0 0.0 0.00 0.00 0.00 77 1012.6
20260502070332 11 15 0.0 0.0 0.00 0.00 0.00 77 1012.7
20260502065831 11 15 0.0 0.0 0.00 0.00 0.00 77 1012.7
20260502065329 11 15 0.0 0.0 0.00 0.00 0.00 77 1012.5
20260502064827 11 15 0.0 0.0 0.00 0.00 0.00 77 1012.8
20260502064325 11 195 0.0 0.0 0.00 0.00 0.00 77 1012.8
20260502063822 11 195 0.0 0.0 0.00 0.00 0.00 76 1012.9
20260502063319 11 195 0.0 0.0 0.00 0.00 0.00 76 1012.8
20260502062816 11 15 0.0 0.0 0.00 0.00 0.00 76 1013.0
20260502062314 11 15 0.0 0.0 0.00 0.00 0.00 76 1013.1
20260502061813 11 14 0.0 0.0 0.00 0.00 0.00 76 1013.0
20260502061310 11 14 0.0 1.6 0.00 0.00 0.00 76 1013.4
20260502060805 11 0 0.0 3.2 0.00 0.00 0.00 76 1013.1
20260502060301 11 35 0.0 4.8 0.00 0.00 0.00 76 1013.3
20260502055759 11 278 0.0 1.6 0.00 0.00 0.00 76 1013.4
20260502055256 11 66 0.0 4.8 0.00 0.00 0.00 76 1013.4
20260502054755 11 225 0.0 3.2 0.00 0.00 0.00 75 1013.2
20260502054253 11 22 3.2 6.4 0.00 0.00 0.00 75 1013.2
20260502053750 11 294 1.6 3.2 0.00 0.00 0.00 75 1013.3
20260502053247 11 0 4.8 4.8 0.00 0.00 0.00 75 1012.7
20260502052745 11 237 0.0 1.6 0.00 0.00 0.00 75 1012.6
20260502052243 11 203 0.0 3.2 0.00 0.00 0.00 75 1012.6
20260502051740 11 199 3.2 4.8 0.00 0.00 0.00 75 1012.9
20260502051239 11 180 0.0 0.0 0.00 0.00 0.00 74 1012.9
20260502050735 11 165 0.0 1.6 0.00 0.00 0.00 74 1012.9